Location: Piotrkow Trybunalski
(51.4000°N, 19.6830°E)
Time: 04:29:41
(UTC+02:00)

A-11 Canister half - Pass Details

Date: 01 February 2023
Orbit: 1526 x 1682 km, 47.3° (Epoch: 24 March)

Event Time Altitude Azimuth Distance (km) Brightness Sun altitude
Rises 08:39:35 0° 260° (W) 4,679 11.2 9.3°
Reaches altitude 10° 08:42:36 10° 258° (WSW) 3,704 10.7 9.7°
Maximum altitude 08:51:52 70° 178° (S) 1,639 9.6 10.7°
Drops below altitude 10° 09:01:24 10° 97° (E) 3,802 12.0 11.7°
Sets 09:04:33 0° 95° (E) 4,809 12.4 12.1°
